Stations météo

réclame
Mon MeteoGroup
St-Girons, France (7627): Température de l'air & dewpoint: 11.01.2018 02:00:00 - 17.01.2018 02:00:00 (CET)St-Girons, France (7627): Température de l'air 5cm: 11.01.2018 02:00:00 - 17.01.2018 02:00:00 (CET)St-Girons, France (7627): Température de l'air -20cm & Température de l'air -100cm: 11.01.2018 02:00:00 - 17.01.2018 02:00:00 (CET)St-Girons, France (7627): Vitesse du vent & gusts: 11.01.2018 02:00:00 - 17.01.2018 02:00:00 (CET)St-Girons, France (7627): Direction du vent: 11.01.2018 02:00:00 - 17.01.2018 02:00:00 (CET)St-Girons, France (7627): reduced air pressure: 11.01.2018 02:00:00 - 17.01.2018 02:00:00 (CET)St-Girons, France (7627): visibility: 11.01.2018 02:00:00 - 17.01.2018 02:00:00 (CET)St-Girons, France (7627): Ensoleillement: 11.01.2018 02:00:00 - 17.01.2018 02:00:00 (CET)St-Girons, France (7627): Quantités de précipitations: 11.01.2018 02:00:00 - 17.01.2018 02:00:00 (CET)
Date & Time tt [°C] td [°C] tt 5cm [°C] tt -20cm [°C] tt -100cm [°C] ff [km/h] ff [knt] fx [km/h] fx [knt] dd ppp [hPa] vv [km] sd [min] rr [mm]
17.01.2018 02:00:00 - - - - - - - - - - - - - -
17.01.2018 01:00:00 12,2 8,5 10,0 8,4 9,3 31 17 55 30 WNW 1018,7 20 0 0,0
17.01.2018 00:00:00 11,0 9,1 9,9 8,4 9,3 13 7 35 19 NW 1019,7 20 0 0,2
16.01.2018 23:00:00 11,8 8,5 10,5 8,3 9,3 16 9 35 19 WNW 1019,5 20 0 0,0
16.01.2018 22:00:00 11,8 8,3 11,2 8,3 9,3 18 10 34 18 WNW 1019,7 20 0 0,0
16.01.2018 21:00:00 12,5 7,8 11,5 8,3 9,3 13 7 30 16 NW 1019,8 20 0 0,0
16.01.2018 20:00:00 13,0 7,2 11,9 8,2 9,3 12 7 39 21 WNW 1019,4 20 0 0,0
16.01.2018 19:00:00 13,2 7,2 11,9 8,1 9,3 17 9 38 20 WNW 1019,7 20 0 0,0
16.01.2018 18:00:00 13,3 6,6 11,8 8,1 9,3 19 10 40 22 WNW 1019,3 20 0 0,0
16.01.2018 17:00:00 14,0 6,8 13,4 8,0 9,3 25 14 43 23 WNW 1019,7 20 7 0,0
16.01.2018 16:00:00 14,9 6,7 14,0 7,9 9,3 23 12 51 28 W 1019,8 20 16 0,0
16.01.2018 15:00:00 14,1 7,6 14,5 7,9 9,3 18 10 45 24 WNW 1020,3 20 6 0,0
16.01.2018 14:00:00 14,0 8,2 13,9 7,9 9,3 18 10 46 25 WNW 1021,2 20 1 0,0
16.01.2018 13:00:00 13,9 7,2 13,2 7,9 9,3 26 14 43 23 WNW 1021,9 20 0 0,0
16.01.2018 12:00:00 13,4 7,4 13,2 7,9 9,3 20 11 46 25 WNW 1022,6 20 0 0,0
16.01.2018 11:00:00 13,4 6,9 12,7 7,8 9,3 21 12 46 25 WNW 1022,6 20 0 0,0
16.01.2018 10:00:00 13,6 6,5 12,3 7,8 9,3 23 13 46 25 WNW 1022,0 20 0 0,0
16.01.2018 09:00:00 13,3 5,9 11,8 7,8 9,3 23 12 39 21 WNW 1021,1 20 0 0,0
16.01.2018 08:00:00 13,4 5,5 11,7 7,8 9,3 21 11 44 24 WNW 1020,1 20 0 0,0
16.01.2018 07:00:00 12,9 5,3 11,1 7,8 9,3 12 7 34 19 WNW 1019,9 20 0 0,0
16.01.2018 06:00:00 12,8 5,5 10,8 7,8 9,3 12 6 39 21 WNW 1019,0 20 0 0,0
16.01.2018 05:00:00 12,8 5,9 10,1 7,7 9,3 16 9 39 21 WNW 1019,3 20 0 0,0
16.01.2018 04:00:00 12,7 5,8 9,0 7,7 9,4 13 7 27 15 W 1019,2 20 0 0,0
16.01.2018 03:00:00 11,8 6,1 8,5 7,7 9,3 11 6 40 22 WNW 1020,2 20 0 0,0
16.01.2018 02:00:00 9,4 6,1 7,8 7,7 9,4 4 2 16 9 SSW 1020,5 20 0 0,0
16.01.2018 01:00:00 10,1 6,4 7,9 7,7 9,3 3 2 18 10 N 1020,9 20 0 0,0
16.01.2018 00:00:00 9,1 4,9 7,5 7,7 9,3 0 0 28 15 N 1021,4 20 0 0,0
15.01.2018 23:00:00 8,1 3,2 5,9 7,7 9,4 9 5 16 8 SE 1021,9 20 0 0,0
15.01.2018 22:00:00 7,3 3,9 6,0 7,7 9,4 3 1 15 8 W 1021,7 19 0 0,0
15.01.2018 21:00:00 8,1 2,7 6,7 7,6 9,4 8 4 20 11 SSE 1020,9 20 0 0,0
15.01.2018 20:00:00 7,4 3,3 6,3 7,6 9,4 8 4 11 6 SSE 1020,9 20 0 0,0
15.01.2018 19:00:00 7,4 3,3 5,9 7,5 9,4 5 3 11 6 S 1021,4 20 0 0,0
15.01.2018 18:00:00 7,5 3,2 6,2 7,4 9,4 8 4 11 6 W 1021,7 20 0 0,0
15.01.2018 17:00:00 8,7 2,7 7,7 7,4 9,4 0 0 10 5 N 1020,8 20 0 0,0
15.01.2018 16:00:00 9,4 1,5 10,0 7,3 9,4 0 0 11 6 N 1021,5 20 0 0,0
15.01.2018 15:00:00 9,5 2,3 10,1 7,3 9,4 9 5 20 11 W 1021,8 20 15 0,0
15.01.2018 14:00:00 10,2 2,5 12,8 7,3 9,4 10 6 19 10 NNW 1022,0 20 49 0,0
15.01.2018 13:00:00 10,1 0,7 12,8 7,4 9,4 5 3 12 7 E 1022,5 20 60 0,0
15.01.2018 12:00:00 9,1 1,5 12,1 7,4 9,4 8 4 15 8 ESE 1024,4 20 60 0,0
15.01.2018 11:00:00 7,3 2,0 6,3 7,4 9,4 10 5 15 8 SE 1025,6 20 52 0,0
15.01.2018 10:00:00 2,9 2,9 -0,6 7,5 9,4 0 0 10 5 N 1026,0 20 60 0,0
15.01.2018 09:00:00 0,1 0,1 -2,7 7,5 9,4 0 0 10 5 N 1026,1 8 5 0,0
15.01.2018 08:00:00 0,5 0,5 -2,4 7,5 9,4 4 2 13 7 SSE 1025,6 20 0 0,0
15.01.2018 07:00:00 1,1 1,1 -2,7 7,5 9,4 4 2 9 5 SW 1024,9 13 0 0,0
15.01.2018 06:00:00 2,3 2,3 -1,3 7,6 9,4 13 7 16 9 S 1024,1 20 0 0,0
15.01.2018 05:00:00 2,1 2,1 -0,5 7,6 9,4 3 2 6 3 S 1024,5 17 0 0,0
15.01.2018 04:00:00 2,6 2,6 0,8 7,6 9,4 3 2 9 5 SSW 1024,2 13 0 0,0
15.01.2018 03:00:00 4,1 3,7 2,8 7,6 9,4 6 3 14 8 SSE 1024,0 20 0 0,0
15.01.2018 02:00:00 4,7 4,7 4,1 7,6 9,4 6 3 13 7 SSE 1023,8 20 0 0,0
15.01.2018 01:00:00 4,9 4,9 4,3 7,6 9,4 3 2 7 4 SSE 1023,8 20 0 0,0
15.01.2018 00:00:00 5,2 5,1 4,7 7,6 9,4 3 2 6 3 S 1023,3 20 0 0,0
14.01.2018 23:00:00 5,2 4,9 4,7 7,5 9,4 0 0 7 4 N 1022,8 20 0 0,0
14.01.2018 22:00:00 5,4 3,9 4,8 7,5 9,4 0 0 11 6 N 1022,1 20 0 0,0
14.01.2018 21:00:00 5,6 3,9 4,9 7,5 9,4 6 3 9 5 NW 1021,4 20 0 0,0
14.01.2018 20:00:00 5,2 5,1 4,2 7,5 9,5 5 3 6 3 SW 1020,8 20 0 0,0
14.01.2018 19:00:00 5,6 4,2 4,7 7,4 9,5 5 3 5 3 WSW 1020,1 20 0 0,0
14.01.2018 18:00:00 5,9 3,9 4,9 7,3 9,5 4 2 5 3 SSE 1019,1 20 1 0,0
14.01.2018 17:00:00 6,5 3,1 6,2 7,2 9,4 0 0 7 4 N 1018,2 20 30 0,0
14.01.2018 16:00:00 6,9 3,5 7,8 7,2 9,5 0 0 7 4 N 1017,6 20 0 0,0
14.01.2018 15:00:00 6,4 3,4 6,9 7,1 9,5 3 2 9 5 E 1017,5 20 0 0,0
14.01.2018 14:00:00 5,9 4,1 6,5 7,2 9,5 6 4 14 7 W 1017,6 19 0 0,0
14.01.2018 13:00:00 6,1 3,4 7,7 7,1 9,5 8 4 12 6 NNW 1018,0 20 0 0,0
14.01.2018 12:00:00 6,5 2,6 8,9 7,1 9,5 6 3 9 5 NNW 1018,0 20 17 0,0
14.01.2018 11:00:00 6,1 2,5 4,5 7,1 9,5 4 2 8 4 ENE 1017,8 20 32 0,0
14.01.2018 10:00:00 4,0 2,7 3,3 7,2 9,5 2 1 8 4 SSE 1017,4 20 0 0,2
14.01.2018 09:00:00 3,5 2,3 3,1 7,1 9,5 6 3 7 4 SSE 1017,0 20 0 0,0
14.01.2018 08:00:00 3,2 1,9 2,6 7,2 9,5 0 0 6 3 N 1016,6 20 0 0,0
14.01.2018 07:00:00 3,2 1,4 2,2 7,2 9,5 2 1 5 3 S 1016,0 20 0 0,0
14.01.2018 06:00:00 3,5 1,2 2,3 7,2 9,5 2 1 10 6 SE 1015,6 20 0 0,0
14.01.2018 05:00:00 2,3 2,3 1,6 7,2 9,5 3 2 6 4 S 1016,1 17 0 0,0
14.01.2018 04:00:00 2,3 1,3 1,7 7,3 9,5 2 1 8 5 NE 1015,9 18 0 0,0
14.01.2018 03:00:00 2,5 2,5 1,1 7,3 9,5 5 3 6 3 SSW 1015,9 20 0 0,0
14.01.2018 02:00:00 1,9 1,9 0,8 7,3 9,5 0 0 6 4 N 1015,8 18 0 0,0
14.01.2018 01:00:00 2,2 2,2 0,9 7,3 9,5 3 2 6 3 SSW 1015,9 20 0 0,0
14.01.2018 00:00:00 2,0 1,7 0,9 7,3 9,5 3 1 9 5 W 1016,0 16 0 0,0
13.01.2018 23:00:00 1,7 1,6 0,9 7,4 9,5 5 3 8 4 WSW 1016,0 20 0 0,0
13.01.2018 22:00:00 2,1 0,8 0,7 7,3 9,5 0 0 5 3 N 1016,1 20 0 0,0
13.01.2018 21:00:00 2,9 1,1 0,2 7,3 9,5 4 2 9 5 SE 1016,1 20 0 0,0
13.01.2018 20:00:00 3,5 1,5 1,2 7,3 9,6 3 1 7 4 SSE 1015,6 20 0 0,0
13.01.2018 19:00:00 4,7 1,5 3,2 7,2 9,5 5 3 13 7 W 1015,1 20 0 0,0
13.01.2018 18:00:00 5,0 1,8 3,8 7,2 9,5 4 2 10 5 WNW 1014,7 20 0 0,0
13.01.2018 17:00:00 6,4 1,5 5,5 7,2 9,5 0 0 6 3 N 1014,6 20 0 0,0
13.01.2018 16:00:00 6,9 0,6 7,5 7,2 9,6 4 2 14 8 SW 1014,6 20 0 0,0
13.01.2018 15:00:00 6,8 -0,2 8,1 7,2 9,6 6 4 14 8 SE 1014,2 20 0 0,0
13.01.2018 14:00:00 6,5 -0,7 8,6 7,2 9,5 4 2 10 5 SSE 1015,0 20 7 0,0
13.01.2018 13:00:00 5,6 -1,6 6,4 7,2 9,6 3 2 12 7 ESE 1015,9 20 5 0,0
13.01.2018 12:00:00 4,2 -1,8 5,0 7,3 9,6 3 2 8 5 E 1016,7 20 0 0,0
13.01.2018 11:00:00 3,3 -2,0 2,4 7,4 9,6 5 3 9 5 E 1016,9 20 0 0,0
13.01.2018 10:00:00 2,3 -2,4 1,5 7,4 9,6 9 5 25 13 SE 1017,0 20 0 0,0
13.01.2018 09:00:00 1,8 -3,1 -0,4 7,5 9,6 11 6 21 11 SE 1017,4 20 0 0,0
13.01.2018 08:00:00 0,8 -3,0 -2,8 7,5 9,6 4 2 20 11 SE 1017,9 20 0 0,0
13.01.2018 07:00:00 -0,1 -3,3 -2,7 7,6 9,6 6 4 14 7 SSE 1018,5 20 0 0,0
13.01.2018 06:00:00 1,0 -3,3 -0,3 7,7 9,6 14 7 29 15 SE 1018,9 20 0 0,0
13.01.2018 05:00:00 1,0 -3,3 -0,8 7,7 9,6 19 10 30 16 SE 1019,4 20 0 0,0
13.01.2018 04:00:00 0,4 -2,8 -1,5 7,8 9,6 10 5 22 12 SSE 1020,6 20 0 0,0
13.01.2018 03:00:00 1,2 -2,0 -0,1 7,8 9,6 11 6 23 12 SE 1021,0 20 0 0,0
13.01.2018 02:00:00 1,5 -1,7 -0,1 7,9 9,6 14 7 24 13 SE 1022,1 20 0 0,0
13.01.2018 01:00:00 1,1 -1,5 0,2 7,9 9,6 15 8 22 12 SE 1023,3 20 0 0,0
13.01.2018 00:00:00 2,1 -0,8 0,2 7,9 9,6 15 8 21 11 SSE 1024,0 20 0 0,0
12.01.2018 23:00:00 2,1 -1,2 0,2 8,0 9,6 12 6 21 11 SE 1024,7 20 0 0,0
12.01.2018 22:00:00 2,0 -0,4 -1,9 8,0 9,6 16 8 23 12 SE 1025,1 20 0 0,0
12.01.2018 21:00:00 1,1 0,7 -2,5 8,0 9,6 5 3 8 5 S 1025,7 20 0 0,0
12.01.2018 20:00:00 1,3 1,0 -1,9 8,0 9,6 4 2 6 3 S 1025,7 20 0 0,0
12.01.2018 19:00:00 2,4 0,8 0,3 7,9 9,6 4 2 12 7 SSE 1025,4 20 0 0,0
12.01.2018 18:00:00 5,0 1,5 1,1 7,9 9,6 4 2 9 5 SW 1024,9 20 0 0,0
12.01.2018 17:00:00 6,7 2,0 5,9 7,8 9,6 0 0 8 5 N 1024,5 20 13 0,0
12.01.2018 16:00:00 8,3 1,0 8,1 7,8 9,6 8 4 15 8 W 1024,1 20 40 -
12.01.2018 15:00:00 9,2 1,4 12,1 7,8 9,6 9 5 21 12 NNW 1023,8 20 60 0,0
12.01.2018 14:00:00 9,0 3,0 9,4 7,8 9,6 11 6 18 10 W 1024,3 20 22 0,0
12.01.2018 13:00:00 7,7 3,0 8,2 7,8 9,6 3 2 9 5 N 1025,4 20 11 0,0
12.01.2018 12:00:00 6,2 2,5 6,3 7,8 9,6 2 1 13 7 SSE 1026,4 20 11 0,0
12.01.2018 11:00:00 5,8 2,6 3,7 7,9 9,6 8 4 14 8 SSE 1026,5 20 17 0,0
12.01.2018 10:00:00 3,2 2,0 2,4 7,9 9,6 6 3 14 8 ENE 1026,7 20 0 0,0
12.01.2018 09:00:00 3,2 3,2 2,4 7,9 9,6 7 4 16 8 S 1026,7 20 0 0,4
12.01.2018 08:00:00 3,1 3,1 2,6 7,9 9,6 3 2 7 4 SW 1027,0 17 0 0,0
12.01.2018 07:00:00 3,1 3,1 2,7 8,0 9,6 4 2 10 5 W 1026,3 20 0 0,0
12.01.2018 06:00:00 3,2 3,2 2,7 8,0 9,6 8 4 9 5 SSE 1025,9 20 0 0,4
12.01.2018 05:00:00 3,0 3,0 2,4 8,0 9,6 4 2 9 5 ENE 1026,0 8 0 0,4
12.01.2018 04:00:00 2,9 2,9 2,2 8,0 9,6 3 1 7 4 SSE 1026,3 20 0 0,0
12.01.2018 03:00:00 2,7 2,7 1,5 8,1 9,6 0 0 3 2 N 1025,9 20 0 0,0
12.01.2018 02:00:00 2,1 2,1 -0,6 8,1 9,6 0 0 8 4 N 1025,6 20 0 0,0
12.01.2018 01:00:00 2,5 2,5 -0,5 8,1 9,6 2 1 10 5 SSW 1025,2 7 0 0,0
12.01.2018 00:00:00 4,0 4,0 3,6 8,1 9,6 2 1 8 4 SE 1025,1 19 0 0,0
11.01.2018 23:00:00 4,1 4,0 3,4 8,1 9,6 4 2 7 4 SSW 1024,9 16 0 0,0
11.01.2018 22:00:00 4,2 3,3 3,6 8,1 9,6 4 2 8 4 W 1024,0 20 0 0,0
11.01.2018 21:00:00 4,2 3,5 2,1 8,1 9,7 4 2 8 4 W 1023,5 20 0 0,0
11.01.2018 20:00:00 3,8 3,4 1,6 8,1 9,7 0 0 8 5 N 1022,9 20 0 0,0
11.01.2018 19:00:00 4,9 3,4 4,0 8,1 9,7 6 4 14 7 WNW 1021,7 20 0 0,0
11.01.2018 18:00:00 5,1 4,4 4,5 8,0 9,6 7 4 18 10 WNW 1021,3 19 0 0,4
11.01.2018 17:00:00 5,4 3,7 5,0 8,0 9,7 5 3 17 9 W 1020,4 12 0 0,6
11.01.2018 16:00:00 5,5 3,7 5,1 8,0 9,7 5 3 20 11 W 1019,6 20 0 0,2
11.01.2018 15:00:00 6,3 3,1 5,2 8,0 9,7 8 4 35 19 W 1019,0 18 0 0,2
11.01.2018 14:00:00 7,2 1,9 6,8 8,0 9,7 10 6 25 13 WNW 1018,5 20 7 0,0
11.01.2018 13:00:00 7,0 2,3 6,5 8,0 9,7 13 7 36 20 W 1018,7 20 2 0,0
11.01.2018 12:00:00 6,4 2,3 6,8 8,0 9,7 4 2 13 7 N 1019,0 20 0 0,0
11.01.2018 11:00:00 5,2 2,2 5,0 8,1 9,7 3 1 7 4 WSW 1019,1 20 0 0,0
11.01.2018 10:00:00 4,1 2,9 3,0 8,1 9,7 0 0 9 5 N 1018,5 20 0 0,0
11.01.2018 09:00:00 3,3 3,3 1,1 8,2 9,7 2 1 15 8 SW 1018,1 19 0 0,2
11.01.2018 08:00:00 2,6 2,6 0,6 8,2 9,7 5 3 8 4 SSE 1017,5 20 0 0,0
11.01.2018 07:00:00 2,7 2,7 1,5 8,2 9,7 4 2 8 4 WNW 1017,1 20 0 0,0
11.01.2018 06:00:00 3,0 3,0 0,5 8,3 9,7 2 1 8 4 SSE 1016,7 20 0 0,0
11.01.2018 05:00:00 4,0 3,0 2,9 8,2 9,7 3 1 14 7 SW 1016,7 20 0 0,0
11.01.2018 04:00:00 4,3 4,2 3,7 8,4 9,7 8 4 11 6 SSE 1016,8 20 0 0,0
11.01.2018 03:00:00 4,9 3,2 4,1 8,4 9,7 8 4 13 7 SSE 1016,8 20 0 0,0
11.01.2018 02:00:00 5,0 3,0 4,2 8,3 9,7 3 2 8 4 ESE 1016,7 20 0 0,0

tt = Température de l'air
td = dewpoint
tt 5cm = Température de l'air 5cm
tt -20cm = Température de l'air -20cm
tt -100cm = Température de l'air -100cm
ff = Vitesse du vent
fx = gusts
dd = Direction du vent
ppp = reduced air pressure
vv = visibility
sd = Ensoleillement
rr = Quantités de précipitations

stations d'obs. à proximité